Estación de San José

Ultimos registro cada 15 minutos 62
Estación Fecha / Hora Temperatura Humedad Lluvia Velocidad Dirección Radiación Presion
62 San José 09-05-2026 15:15 16,1 63 0 0 161 28 1018,5
61 San José 09-05-2026 15:00 16,1 61 0 0 135 30 1018,6
60 San José 09-05-2026 14:45 15,9 62 0 0 226 33 1018,7
59 San José 09-05-2026 14:30 15,8 65 0 0 107 35 1018,9
58 San José 09-05-2026 14:15 15,4 63 0 0 156 40 1019
57 San José 09-05-2026 14:00 15,1 65 0 0 130 531 1019,1
56 San José 09-05-2026 13:45 15,1 66 0 0 149 548 1019,1
55 San José 09-05-2026 13:30 14,5 67 0 0 245 564 1019,1
54 San José 09-05-2026 13:15 14,3 68 0 0 164 575 1019,3
53 San José 09-05-2026 13:00 13,8 71 0 0 194 580 1019,6
52 San José 09-05-2026 12:45 13,4 71 0 0 233 585 1019,7
51 San José 09-05-2026 12:30 12,5 72 0 0 120 587 1019,9
50 San José 09-05-2026 12:15 11,7 78 0 0 124 578 1020,3
49 San José 09-05-2026 12:00 10,8 79 0 0 153 570 1020,2
48 San José 09-05-2026 11:45 10,4 81 0 0 163 559 1020,4
47 San José 09-05-2026 11:30 10,1 82 0 0 203 547 1020,1
46 San José 09-05-2026 11:15 8,7 85 0 0 162 559 1020,2
45 San José 09-05-2026 11:00 8,1 88 0 0 171 357 1019,9
44 San José 09-05-2026 10:45 7,4 90 0 0 58 287 1020,3
43 San José 09-05-2026 10:30 6,8 90 0 0 158 489 1020,5
42 San José 09-05-2026 10:15 6,4 91 0 0 151 207 1020,6
41 San José 09-05-2026 10:00 6,3 92 0 0 185 171 1020,5
40 San José 09-05-2026 09:45 6,2 92 0 0 185 107 1020,5
39 San José 09-05-2026 09:30 6,3 92 0 0 216 86 1020,4
38 San José 09-05-2026 09:15 6,3 92 0 0 153 77 1020,4
37 San José 09-05-2026 09:00 6,2 93 0 0 163 62 1020,4
36 San José 09-05-2026 08:45 6 92 0 0 167 58 1020,9
35 San José 09-05-2026 08:30 5,9 92 0 0 159 42 1020,8
34 San José 09-05-2026 08:15 5,9 92 0 0 161 28 1020,8
33 San José 09-05-2026 08:00 6,1 92 0 0 170 19 1020,7
32 San José 09-05-2026 07:45 6,2 92 0 0 146 9 1020,7
31 San José 09-05-2026 07:30 6,4 92 0 0 219 0 1020,6
30 San José 09-05-2026 07:15 6,7 92 0 0 219 0 1020,7
29 San José 09-05-2026 07:00 6,9 92 0 0 219 0 1020,6
28 San José 09-05-2026 06:45 7,2 92 0 0 216 0 1020,8
27 San José 09-05-2026 06:30 7,3 91 0 0 216 0 1020,7
26 San José 09-05-2026 06:15 7,6 92 0 0 217 0 1020,9
25 San José 09-05-2026 06:00 7,8 91 0 0 218 0 1020,9
24 San José 09-05-2026 05:45 7,9 92 0 0 164 0 1021
23 San José 09-05-2026 05:30 8,1 92 0 0 164 0 1021
22 San José 09-05-2026 05:15 8,2 91 0 0 216 0 1020,9
21 San José 09-05-2026 05:00 8,3 92 0 0 220 0 1020,9
20 San José 09-05-2026 04:45 8,3 92 0 0 215 0 1020,8
19 San José 09-05-2026 04:30 8,4 92 0 0 214 0 1020,8
18 San José 09-05-2026 04:15 8,4 92 0 0 214 0 1021
17 San José 09-05-2026 04:00 8,4 92 0 0 214 0 1021
16 San José 09-05-2026 03:45 8,6 93 0 0 206 0 1021,3
15 San José 09-05-2026 03:30 8,7 93 0 0 204 0 1021,3
14 San José 09-05-2026 03:15 8,8 93 0 0 207 0 1021,4
13 San José 09-05-2026 03:00 8,9 93 0 0 229 0 1021,6
12 San José 09-05-2026 02:45 9 93 0 0 227 0 1021,6
11 San José 09-05-2026 02:30 9,2 93 0 0 192 0 1021,7
10 San José 09-05-2026 02:15 9,3 93 0 0 192 0 1021,6
9 San José 09-05-2026 02:00 9,4 93 0 0 192 0 1022
8 San José 09-05-2026 01:45 9,6 93 0 0 214 0 1021,9
7 San José 09-05-2026 01:30 9,7 93 0 0 214 0 1021,9
6 San José 09-05-2026 01:15 9,8 93 0 0 216 0 1021,8
5 San José 09-05-2026 01:00 9,8 93 0 0 215 0 1022
4 San José 09-05-2026 00:45 9,9 93 0 0 228 0 1022
3 San José 09-05-2026 00:30 9,9 93 0 0 185 0 1021,9
2 San José 09-05-2026 00:15 10 93 0 0 185 0 1021,8
1 San José 09-05-2026 00:00 9,9 93 0 0 185 0 1021,9